Terminal Aerodrome Forecast
Issued by NWS

Home | Current Version | Previous Version | Graphics & Text | Print | Product List | Glossary On
Versions: 1 2 3 4 5 6 7 8 9 10 11 12
000
FTUS43 KOAX 220520
TAFCDR
TAF
KCDR 220520Z 2206/2306 29021KT P6SM BKN100
     FM221500 31028G45KT P6SM BKN100
     FM230200 32018KT P6SM BKN050=

USA.gov is the U.S. government's official web portal to all federal, state and local government web resources and services.